This demonstration page uses our WeatherBlox Daily Observations layout. Learn more.

Left ArrowRight Arrow

41.86663, -103.66717

Hourly Observations for October 22, 2021

Temp ( °F °C ) Dew Point ( °F °C ) Humidity (%) Winds ( mph kmh ) Pressure ( in mb ) Visibility ( mi km ) Precip ( " mm )
12:53 am 00:53 Clear 36 2.2 32 undefined 86 86 NNW 5 7 30.08 1019 10 16 N/A
1:53 am 01:53 Clear 36 2.2 32 undefined 86 86 undefined N/A 30.06 1018 10 16 N/A
2:53 am 02:53 Clear 35 1.7 31 -0.6 85 85 NW 3 6 30.05 1018 10 16 N/A
3:53 am 03:53 Clear 35 1.7 30 -1.1 82 82 N N/A 30.04 1017 10 16 N/A
4:53 am 04:53 Clear 36 2.2 31 -0.6 82 82 NNW 5 7 30.03 1017 10 16 N/A
5:53 am 05:53 Clear 33 0.6 29 -1.7 85 85 WNW 7 11 30.04 1017 10 16 N/A
6:53 am 06:53 Clear 33 0.6 29 -1.7 85 85 WNW 6 9 30.07 1018 10 16 N/A
7:53 am 07:53 Sunny 35 1.7 31 -0.6 85 85 W 3 6 30.05 1018 10 16 N/A
8:53 am 08:53 Sunny 48 8.9 37 2.8 66 66 N 3 6 30.05 1018 10 16 N/A
9:53 am 09:53 Sunny 54 12.2 37 2.8 53 53 NW 7 11 30.03 1017 10 16 N/A
10:53 am 10:53 Sunny 60 15.6 36 2.2 41 41 WNW 10 17 30.01 1016 10 16 N/A
11:53 am 11:53 Sunny 65 18.3 36 2.2 34 34 WNW 10 17 29.98 1015 10 16 N/A
12:53 pm 12:53 Sunny 68 20 36 2.2 31 31 NW 12 19 29.95 1014 10 16 N/A
1:53 pm 13:53 Sunny 71 21.7 35 1.7 27 27 NW 9 15 29.90 1012 10 16 N/A
2:53 pm 14:53 Sunny 72 22.2 33 0.6 24 24 NNW 6 9 29.88 1012 10 16 N/A
3:53 pm 15:53 Sunny 72 22.2 32 undefined 23 23 N N/A 29.87 1012 10 16 N/A
4:53 pm 16:53 Sunny 71 21.7 33 0.6 25 25 NW 3 6 29.85 1011 10 16 N/A
5:53 pm 17:53 Sunny 61 16.1 35 1.7 38 38 NE 5 7 29.88 1012 10 16 N/A
6:53 pm 18:53 Clear 52 11.1 37 2.8 57 57 E 6 9 29.89 1012 10 16 N/A
7:53 pm 19:53 Clear 49 9.4 36 2.2 61 61 E 5 7 29.90 1013 10 16 N/A
8:53 pm 20:53 Clear 47 8.3 37 2.8 69 69 E 7 11 29.86 1011 10 16 N/A
9:53 pm 21:53 Clear 49 9.4 38 3.3 66 66 E 9 15 29.83 1010 10 16 N/A
10:53 pm 22:53 Clear 50 10 38 3.3 63 63 ESE 14 22 29.81 1009 10 16 N/A
11:53 pm 23:53 Clear 47 8.3 38 3.3 71 71 ESE 10 17 29.79 1009 10 16 N/A

Powered by AerisWeather